CZ-6A DEB, 60795

Orbit data source: Space-Track

CZ-6A DEB, 60795 is space debris in LEO originally from a launch on Tue, 06 Aug 2024 UTC launched from the Taiyaun Space Center, China (TSC). Debris objects in space refer to the collection of defunct objects orbiting the Earth. Examples of debris include non-operational satellites, rocket bodies, and fragments generated from explosions, collisions, or faulty payload assembly.

Loading next visibility...
Identifier
60795, 2024-140FW
Orbit
LEO
Country
Flag of CNCN / PRC
Related business
Manufacturer
SAST
Mission
Spacecraft
Bus & Motor
Unknown
Mass
Unknown
Launch date (UTC)
2024-08-06 (2 years ago)
Launch vehicle
Unknown
Launch site
Taiyaun Space Center, China (TSC)
Object type
Payload
Rocket body
Debris
Shape & HBR
Unknown shape, 0.2 m
Radar Cross Section
Medium (>0.1 m² and <1 m²)

Expand to show TLE details & history
Last TLE update: 16 hours ago

TLE from 16 hours ago
0 CZ-6A DEB
1 60795U 24140FW  26171.30673477  .00000384  00000-0  18235-3 0  9999
2 60795  89.0104 275.5249 0067317 196.3996 163.5015 14.16419762 94311
Epoch: 2026-06-20T07:21Z
TLE epoch observation values (Epoch: 2026-06-20T07:21:41.884Z)
Latitude
-0.00002°
Longitude
-103.42286°
Altitude
887.144 km
Speed
7.385 km/s
True Right ascension
18h 22m 05s
True Declination
0° 00' 00"
Sunlit
Object was in full shadow at epoch
Visualization orbit readout
Latitude
Unknown
Longitude
Unknown
Altitude
Unknown
Speed
Unknown
Apparent Right ascension
Unknown
Apparent Declination
Unknown
Sunlit
N/A
Visualization observer readout
Local Sidereal Time
10:18:41
Azimuth
Unknown
Elevation
Unknown
Doppler factor
Unknown
Orbital elements
Apogee altitude
882.995 km
Perigee altitude
785.89 km
Semi-major axis
7,212.579 km
Eccentricity
0.00673
Inclination
89.0104°
RAAN
275.5249°
Arg. of periapsis
196.3996°
True anomaly
163.71881°
Mean anomaly
163.5015°
Eccentric anomaly
163.61033°
Mean motion
3.54329 °/min
Orbital period
101.6 mins
BSTAR
0.00018235
Loading maneuver chart data...
Computing Atmospheric mass density...
Loading historical data...
Loading historical data...
Loading historical data...
Loading historical data...
Loading historical data...
Loading historical data...
Loading historical data...

Documentation

Showing up to 5 results
|